Time,TemperatureF,DewpointF,PressureIn,WindDirection,WindDirectionDegrees,WindSpeedMPH,WindSpeedGustMPH,Humidity,HourlyPrecipIn,Conditions,Clouds,dailyrainin,SoftwareType,DateUTC
2013-02-27 00:04:00,41.7,36.6,29.57,SW,225,3.7,-999.0,82,-99.99,,,0.00,Acu-Link.com,2013-02-27 05:04:00,
2013-02-27 00:19:00,41.7,36.6,29.56,SSE,157,4.2,-999.0,82,-99.99,,,0.00,Acu-Link.com,2013-02-27 05:19:00,
2013-02-27 00:34:00,41.7,36.6,29.57,West,270,4.2,-999.0,82,-99.99,,,0.00,Acu-Link.com,2013-02-27 05:34:00,
2013-02-27 00:50:00,41.4,36.6,29.58,North,0,7.8,-999.0,83,-99.99,,,0.00,Acu-Link.com,2013-02-27 05:50:00,
2013-02-27 01:05:00,41.2,36.4,29.59,West,270,4.2,-999.0,83,-99.99,,,0.00,Acu-Link.com,2013-02-27 06:05:00,
2013-02-27 01:20:00,40.8,35.4,29.58,WSW,247,2.7,-999.0,81,-99.99,,,0.00,Acu-Link.com,2013-02-27 06:20:00,
2013-02-27 01:35:00,40.6,35.2,29.59,ESE,112,2.7,-999.0,81,-99.99,,,0.00,Acu-Link.com,2013-02-27 06:35:00,
2013-02-27 01:51:00,40.8,35.4,29.60,West,270,2.7,-999.0,81,-99.99,,,0.00,Acu-Link.com,2013-02-27 06:51:00,
2013-02-27 02:06:00,40.6,35.2,29.60,South,180,1.1,-999.0,81,-99.99,,,0.00,Acu-Link.com,2013-02-27 07:06:00,
2013-02-27 02:21:00,40.6,35.2,29.60,WSW,247,1.7,-999.0,81,-99.99,,,0.00,Acu-Link.com,2013-02-27 07:21:00,
2013-02-27 02:36:00,40.6,34.9,29.60,West,270,0.0,-999.0,80,-99.99,,,0.00,Acu-Link.com,2013-02-27 07:36:00,
2013-02-27 02:52:00,40.6,34.6,29.60,WSW,247,2.2,-999.0,79,-99.99,,,0.00,Acu-Link.com,2013-02-27 07:52:00,
2013-02-27 03:07:00,40.8,35.1,29.61,SSW,202,0.0,-999.0,80,-99.99,,,0.00,Acu-Link.com,2013-02-27 08:07:00,
2013-02-27 03:22:00,40.6,35.2,29.61,SW,225,5.3,-999.0,81,-99.99,,,0.00,Acu-Link.com,2013-02-27 08:22:00,
2013-02-27 03:38:00,40.5,35.1,29.61,WSW,247,2.7,-999.0,81,-99.99,,,0.00,Acu-Link.com,2013-02-27 08:38:00,
2013-02-27 03:53:00,40.5,35.4,29.61,South,180,3.2,-999.0,82,-99.99,,,0.00,Acu-Link.com,2013-02-27 08:53:00,
2013-02-27 04:18:00,40.5,35.4,29.61,SW,225,3.7,-999.0,82,-99.99,,,0.00,Acu-Link.com,2013-02-27 09:18:00,
2013-02-27 04:33:00,40.5,35.4,29.62,WSW,247,2.7,-999.0,82,-99.99,,,0.00,Acu-Link.com,2013-02-27 09:33:00,
2013-02-27 04:48:00,40.5,35.1,29.62,SSW,202,3.2,-999.0,81,-99.99,,,0.00,Acu-Link.com,2013-02-27 09:48:00,
2013-02-27 05:04:00,40.6,34.6,29.63,SW,225,3.7,-999.0,79,-99.99,,,0.00,Acu-Link.com,2013-02-27 10:04:00,
2013-02-27 05:19:00,40.6,34.6,29.63,SSW,202,3.7,-999.0,79,-99.99,,,0.00,Acu-Link.com,2013-02-27 10:19:00,
2013-02-27 05:34:00,40.6,34.3,29.64,SW,225,5.8,-999.0,78,-99.99,,,0.00,Acu-Link.com,2013-02-27 10:34:00,
2013-02-27 05:49:00,40.6,34.0,29.64,NNE,22,8.3,-999.0,77,-99.99,,,0.00,Acu-Link.com,2013-02-27 10:49:00,
2013-02-27 06:04:00,40.8,34.2,29.64,South,180,3.2,-999.0,77,-99.99,,,0.00,Acu-Link.com,2013-02-27 11:04:00,
2013-02-27 06:20:00,40.8,33.8,29.63,SW,225,2.7,-999.0,76,-99.99,,,0.00,Acu-Link.com,2013-02-27 11:20:00,
2013-02-27 06:35:00,40.8,34.2,29.64,NNW,337,2.2,-999.0,77,-99.99,,,0.00,Acu-Link.com,2013-02-27 11:35:00,
2013-02-27 06:50:00,40.8,33.8,29.63,WSW,247,2.7,-999.0,76,-99.99,,,0.00,Acu-Link.com,2013-02-27 11:50:00,
2013-02-27 07:05:00,40.8,34.2,29.64,SW,225,3.2,-999.0,77,-99.99,,,0.00,Acu-Link.com,2013-02-27 12:05:00,
2013-02-27 07:21:00,40.8,34.2,29.66,West,270,2.7,-999.0,77,-99.99,,,0.00,Acu-Link.com,2013-02-27 12:21:00,
2013-02-27 07:36:00,40.8,33.2,29.67,NNW,337,8.9,-999.0,74,-99.99,,,0.00,Acu-Link.com,2013-02-27 12:36:00,
2013-02-27 08:06:00,40.8,33.2,29.67,SW,225,4.7,-999.0,74,-99.99,,,0.00,Acu-Link.com,2013-02-27 13:06:00,
2013-02-27 08:22:00,40.8,33.2,29.68,NE,45,0.0,-999.0,74,-99.99,,,0.00,Acu-Link.com,2013-02-27 13:22:00,
2013-02-27 08:37:00,41.0,33.7,29.69,SW,225,3.2,-999.0,75,-99.99,,,0.00,Acu-Link.com,2013-02-27 13:37:00,
2013-02-27 08:52:00,41.2,33.6,29.69,SSW,202,2.7,-999.0,74,-99.99,,,0.00,Acu-Link.com,2013-02-27 13:52:00,
2013-02-27 09:07:00,41.4,33.4,29.70,SW,225,0.0,-999.0,73,-99.99,,,0.00,Acu-Link.com,2013-02-27 14:07:00,
2013-02-27 09:23:00,41.7,33.7,29.71,SW,225,0.0,-999.0,73,-99.99,,,0.00,Acu-Link.com,2013-02-27 14:23:00,
2013-02-27 09:38:00,41.9,33.5,29.70,SSW,202,0.0,-999.0,72,-99.99,,,0.00,Acu-Link.com,2013-02-27 14:38:00,
2013-02-27 09:53:00,41.9,33.9,29.71,East,90,2.2,-999.0,73,-99.99,,,0.00,Acu-Link.com,2013-02-27 14:53:00,
2013-02-27 10:08:00,42.1,33.7,29.71,WSW,247,1.1,-999.0,72,-99.99,,,0.00,Acu-Link.com,2013-02-27 15:08:00,
2013-02-27 10:24:00,42.4,34.0,29.70,SSW,202,5.3,-999.0,72,-99.99,,,0.00,Acu-Link.com,2013-02-27 15:24:00,
2013-02-27 10:39:00,43.0,34.3,29.70,SSW,202,1.7,-999.0,71,-99.99,,,0.00,Acu-Link.com,2013-02-27 15:39:00,
2013-02-27 10:54:00,43.5,34.4,29.70,SSW,202,2.7,-999.0,70,-99.99,,,0.00,Acu-Link.com,2013-02-27 15:54:00,
2013-02-27 11:09:00,44.1,34.6,29.71,SW,225,2.7,-999.0,69,-99.99,,,0.00,Acu-Link.com,2013-02-27 16:09:00,
2013-02-27 11:25:00,44.8,34.9,29.70,SSW,202,2.7,-999.0,68,-99.99,,,0.00,Acu-Link.com,2013-02-27 16:25:00,
2013-02-27 11:40:00,45.0,35.5,29.70,West,270,2.2,-999.0,69,-99.99,,,0.00,Acu-Link.com,2013-02-27 16:40:00,
2013-02-27 11:55:00,45.3,35.4,29.70,SSW,202,2.7,-999.0,68,-99.99,,,0.00,Acu-Link.com,2013-02-27 16:55:00,
2013-02-27 12:10:00,45.9,35.6,29.70,SSE,157,4.2,-999.0,67,-99.99,,,0.00,Acu-Link.com,2013-02-27 17:10:00,
2013-02-27 12:25:00,46.6,35.9,29.69,West,270,2.2,-999.0,66,-99.99,,,0.00,Acu-Link.com,2013-02-27 17:25:00,
2013-02-27 12:40:00,48.4,36.0,29.68,SSW,202,4.2,-999.0,62,-99.99,,,0.00,Acu-Link.com,2013-02-27 17:40:00,
2013-02-27 12:55:00,48.7,35.9,29.68,SSW,202,4.2,-999.0,61,-99.99,,,0.00,Acu-Link.com,2013-02-27 17:55:00,
2013-02-27 13:11:00,49.8,36.9,29.67,SW,225,4.2,-999.0,61,-99.99,,,0.00,Acu-Link.com,2013-02-27 18:11:00,
2013-02-27 13:26:00,51.6,38.2,29.66,South,180,4.2,-999.0,60,-99.99,,,0.00,Acu-Link.com,2013-02-27 18:26:00,
2013-02-27 13:41:00,51.8,37.1,29.65,NNE,22,2.7,-999.0,57,-99.99,,,0.00,Acu-Link.com,2013-02-27 18:41:00,
2013-02-27 13:57:00,51.4,38.0,29.64,East,90,3.7,-999.0,60,-99.99,,,0.00,Acu-Link.com,2013-02-27 18:57:00,
2013-02-27 14:12:00,51.8,38.4,29.63,ESE,112,6.8,-999.0,60,-99.99,,,0.00,Acu-Link.com,2013-02-27 19:12:00,
2013-02-27 14:27:00,52.0,37.2,29.63,SSW,202,3.7,-999.0,57,-99.99,,,0.00,Acu-Link.com,2013-02-27 19:27:00,
2013-02-27 14:43:00,54.5,39.6,29.63,SSW,202,1.7,-999.0,57,-99.99,,,0.00,Acu-Link.com,2013-02-27 19:43:00,
2013-02-27 14:58:00,54.9,38.6,29.62,SW,225,8.3,-999.0,54,-99.99,,,0.00,Acu-Link.com,2013-02-27 19:58:00,
2013-02-27 15:13:00,54.7,35.9,29.61,SSW,202,9.9,-999.0,49,-99.99,,,0.00,Acu-Link.com,2013-02-27 20:13:00,
2013-02-27 15:28:00,55.2,36.4,29.61,South,180,5.3,-999.0,49,-99.99,,,0.00,Acu-Link.com,2013-02-27 20:28:00,
2013-02-27 15:43:00,55.6,36.7,29.61,SW,225,6.8,-999.0,49,-99.99,,,0.00,Acu-Link.com,2013-02-27 20:43:00,
2013-02-27 15:59:00,56.5,37.0,29.62,West,270,5.8,-999.0,48,-99.99,,,0.00,Acu-Link.com,2013-02-27 20:59:00,
2013-02-27 16:14:00,57.4,37.9,29.61,SW,225,3.7,-999.0,48,-99.99,,,0.00,Acu-Link.com,2013-02-27 21:14:00,
2013-02-27 16:29:00,56.7,37.2,29.61,SW,225,3.7,-999.0,48,-99.99,,,0.00,Acu-Link.com,2013-02-27 21:29:00,
2013-02-27 16:45:00,55.8,36.4,29.61,SSW,202,3.2,-999.0,48,-99.99,,,0.00,Acu-Link.com,2013-02-27 21:45:00,
2013-02-27 17:00:00,54.9,35.1,29.61,SW,225,2.7,-999.0,47,-99.99,,,0.00,Acu-Link.com,2013-02-27 22:00:00,
2013-02-27 17:15:00,54.7,35.4,29.62,WSW,247,4.7,-999.0,48,-99.99,,,0.00,Acu-Link.com,2013-02-27 22:15:00,
2013-02-27 17:30:00,53.8,35.6,29.62,SSW,202,1.7,-999.0,50,-99.99,,,0.00,Acu-Link.com,2013-02-27 22:30:00,
2013-02-27 17:46:00,53.1,35.0,29.62,WNW,292,7.8,-999.0,50,-99.99,,,0.00,Acu-Link.com,2013-02-27 22:46:00,
2013-02-27 18:01:00,52.3,34.7,29.63,SSW,202,6.3,-999.0,51,-99.99,,,0.00,Acu-Link.com,2013-02-27 23:01:00,
2013-02-27 18:16:00,51.8,35.2,29.64,WSW,247,1.7,-999.0,53,-99.99,,,0.00,Acu-Link.com,2013-02-27 23:16:00,
2013-02-27 18:32:00,51.3,35.2,29.64,South,180,2.2,-999.0,54,-99.99,,,0.00,Acu-Link.com,2013-02-27 23:32:00,
2013-02-27 18:47:00,50.5,35.4,29.65,NW,315,4.2,-999.0,56,-99.99,,,0.00,Acu-Link.com,2013-02-27 23:47:00,
2013-02-27 19:02:00,49.8,36.1,29.65,NW,315,5.8,-999.0,59,-99.99,,,0.00,Acu-Link.com,2013-02-28 00:02:00,
2013-02-27 19:17:00,48.7,37.5,29.66,West,270,1.1,-999.0,65,-99.99,,,0.00,Acu-Link.com,2013-02-28 00:17:00,
2013-02-27 19:32:00,47.8,37.0,29.66,West,270,5.3,-999.0,66,-99.99,,,0.00,Acu-Link.com,2013-02-28 00:32:00,
2013-02-27 19:47:00,47.7,36.5,29.67,WSW,247,2.2,-999.0,65,-99.99,,,0.00,Acu-Link.com,2013-02-28 00:47:00,
2013-02-27 20:02:00,47.3,35.7,29.67,South,180,0.0,-999.0,64,-99.99,,,0.00,Acu-Link.com,2013-02-28 01:02:00,
2013-02-27 20:18:00,46.2,34.7,29.68,SW,225,2.7,-999.0,64,-99.99,,,0.00,Acu-Link.com,2013-02-28 01:18:00,
2013-02-27 20:33:00,45.9,34.4,29.67,West,270,1.7,-999.0,64,-99.99,,,0.00,Acu-Link.com,2013-02-28 01:33:00,
2013-02-27 20:48:00,45.1,34.0,29.68,NNW,337,3.7,-999.0,65,-99.99,,,0.00,Acu-Link.com,2013-02-28 01:48:00,
2013-02-27 21:03:00,44.6,34.0,29.69,NNW,337,4.2,-999.0,66,-99.99,,,0.00,Acu-Link.com,2013-02-28 02:03:00,
2013-02-27 21:19:00,43.7,33.8,29.69,WSW,247,2.7,-999.0,68,-99.99,,,0.00,Acu-Link.com,2013-02-28 02:19:00,
2013-02-27 21:34:00,43.2,33.7,29.70,SW,225,5.3,-999.0,69,-99.99,,,0.00,Acu-Link.com,2013-02-28 02:34:00,
2013-02-27 21:49:00,43.0,33.2,29.70,ESE,112,1.7,-999.0,68,-99.99,,,0.00,Acu-Link.com,2013-02-28 02:49:00,
2013-02-27 22:05:00,42.4,32.6,29.71,WNW,292,1.7,-999.0,68,-99.99,,,0.00,Acu-Link.com,2013-02-28 03:05:00,
2013-02-27 22:20:00,42.3,32.5,29.71,South,180,2.7,-999.0,68,-99.99,,,0.00,Acu-Link.com,2013-02-28 03:20:00,
2013-02-27 22:35:00,41.9,32.1,29.72,SSW,202,5.3,-999.0,68,-99.99,,,0.00,Acu-Link.com,2013-02-28 03:35:00,
2013-02-27 22:50:00,41.9,32.1,29.71,South,180,1.7,-999.0,68,-99.99,,,0.00,Acu-Link.com,2013-02-28 03:50:00,
2013-02-27 23:06:00,42.1,32.3,29.71,SSW,202,2.7,-999.0,68,-99.99,,,0.00,Acu-Link.com,2013-02-28 04:06:00,
2013-02-27 23:21:00,41.9,31.8,29.71,SE,135,0.0,-999.0,67,-99.99,,,0.00,Acu-Link.com,2013-02-28 04:21:00,
2013-02-27 23:36:00,42.1,30.8,29.70,WNW,292,2.2,-999.0,64,-99.99,,,0.00,Acu-Link.com,2013-02-28 04:36:00,
2013-02-27 23:52:00,42.4,31.5,29.71,NNE,22,3.7,-999.0,65,-99.99,,,0.00,Acu-Link.com,2013-02-28 04:52:00,